AirNav   Air Wisconsin pilot careers
 
 384 users online  

6J4 Saluda County Airport
Saluda, South Carolina, USA

GOING TO SALUDA?


FAA INFORMATION EFFECTIVE 13 SEPTEMBER 2018

Location

FAA Identifier: 6J4
Lat/Long: 33-55-36.4550N / 081-47-40.6600W
33-55.607583N / 081-47.677667W
33.9267931 / -81.7946278
(estimated)
Elevation: 539.2 ft. / 164 m (estimated)
Variation: 06W (2010)
From city: 4 miles S of SALUDA, SC
Time zone: UTC -4 (UTC -5 during Standard Time)
Zip code: 29138

Airport Operations

Airport use: Open to the public
Activation date: 01/1970
Control tower: no
ARTCC: ATLANTA CENTER
FSS: ANDERSON FLIGHT SERVICE STATION
NOTAMs facility: AND (NOTAM-D service available)
Attendance: MON-FRI 0800-1700, ALL SAT 0800-1200
Wind indicator: lighted
Segmented circle: yes
Lights: ACTVT MIRL RY 01/19 & PAPI RY 01 - CTAF.
Beacon: white-green (lighted land airport)
Operates sunset to sunrise.

Airport Communications

CTAF: 122.9
AUGUSTA APPROACH: 119.15 124.15 WHEN AUGUSTA APCH CTL CLSD
COLUMBIA APPROACH: 126.8
AUGUSTA DEPARTURE: 119.15 124.15 WHEN AUGUSTA APCH CTL CLSD
COLUMBIA DEPARTURE: 126.8
WX AWOS-3 at AIK (18 nm S): 118.025 (803-643-8664)

Nearby radio navigation aids

VOR radial/distance  VOR name  Freq  Var
IRQr058/22.6COLLIERS VORTAC113.9004W
GRDr138/26.4GREENWOOD VORTAC115.5001W
CAEr278/37.1COLUMBIA VORTAC114.7002W

 
NDB name  Hdg/Dist  Freq  Var  ID
AIKEN346/17.534706WAIK .- .. -.-
ENOREE206/24.427807WEOE . --- .
CORONACA150/24.423907WGIW --. .. .--
EMORY024/29.638504WEMR . -- .-.

Airport Services

Fuel available: 100LL
Parking: hangars and tiedowns
Airframe service: NONE
Powerplant service: NONE
Bottled oxygen: NONE
Bulk oxygen: NONE

Runway Information

Runway 1/19

Dimensions: 3189 x 60 ft. / 972 x 18 m
Surface: asphalt, in good condition
Weight bearing capacity: 
Single wheel: 11.3
Runway edge lights: medium intensity
RY 1/19 MIRLS OTS INDEF.
RUNWAY 1  RUNWAY 19
Latitude: 33-55.347667N33-55.867500N
Longitude: 081-47.725000W081-47.630333W
Elevation: 536.8 ft.522.3 ft.
Gradient: 0.5%0.5% UP
Traffic pattern: leftleft
Runway heading: 015 magnetic, 009 true195 magnetic, 189 true
Markings: nonprecision, in good conditionnonprecision, in good condition
Visual slope indicator: 2-light PAPI on left (3.00 degrees glide path)
Runway end identifier lights: nono
Touchdown point: yes, no lightsyes, no lights
Obstructions: 27 ft. tree, 726 ft. from runway, 190 ft. left of centerline, 19:1 slope to clear113 ft. trees, 2071 ft. from runway, 276 ft. right of centerline, 16:1 slope to clear

Airport Ownership and Management from official FAA records

Ownership: Publicly-owned
Owner: SALUDA COUNTY
400 WEST HIGHLAND STREET
SALUDA, SC 29138
Phone 864-445-4500
Manager: JILL WARREN
111 LAW ENFORCEMENT DRIVE
SALUDA, SC 29138
Phone 864-445-2529

Airport Operational Statistics

Aircraft based on the field: 5
Single engine airplanes: 5
    
Aircraft operations: avg 27/week *
57% transient general aviation
43% local general aviation
* for 12-month period ending 24 August 2017

Additional Remarks

A112 LAST INSPECTED 4/23/03 BY THE STATE
30 FT DROP OFF N END OF RY 01.

Instrument Procedures

NOTE: All procedures below are presented as PDF files. If you need a reader for these files, you should download the free Adobe Reader.

NOT FOR NAVIGATION. Please procure official charts for flight.
FAA instrument procedures published for use from 13 September 2018 at 0901Z to 11 October 2018 at 0900Z.

 
IAPs - Instrument Approach Procedures
RNAV (GPS) RWY 01   download (185KB)
RNAV (GPS) RWY 19   download (195KB)
NOTE: Special Take-Off Minimums/Departure Procedures apply   download (141KB)

Other nearby airports with instrument procedures:

KAIK - Aiken Regional Airport (18 nm S)
KEOE - Newberry County Airport (24 nm N)
KGRD - Greenwood County Airport (27 nm NW)
6J0 - Lexington County Airport (28 nm E)
KDNL - Daniel Field Airport (30 nm SW)
 
Loc | Ops | Rwys | IFR | FBO | Links
Com | Nav | Svcs | Stats | Notes


 
Area around 6J4 (Saluda County Airport)
 
Road maps at: MapQuest Bing Google
 
Aerial photo
WARNING: Photo may not be current or correct
Aerial photo of 6J4 (Saluda County Airport)
Do you have a better or more recent aerial photo of Saluda County Airport that you would like to share? If so, please send us your photo.

 
Sectional chart

 
Airport distance calculator
Flying to Saluda County Airport? Find the distance to fly.

From to 6J4

Sunrise and sunset
Times for 26-Sep-2018
 Local
(UTC-4)
 Zulu
(UTC)
Morning civil twilight06:5410:54
Sunrise07:1911:19
Sunset19:1823:18
Evening civil twilight19:4323:43

Current date and time
Zulu (UTC)  26-Sep-2018 08:17:51
Local (UTC-4)  26-Sep-2018 04:17:51
 
METAR
KAIK 
18nm S 
260755Z AUTO 00000KT 10SM CLR 20/20 A3014 RMK AO2
KEOE 
24nm N 
260755Z AUTO 00000KT 1/2SM FG OVC001 20/20 A3014 RMK AO2
KGRD 
26nm NW 
260756Z AUTO 00000KT 6SM BR SCT050 19/19 A3012 RMK AO2 SLP194 T01940194
KDNL 
30nm SW 
260753Z AUTO 00000KT 10SM CLR 24/21 A3010 RMK AO2 SLP188 T02440206
KCAE 
34nm E 
260756Z 28004KT 10SM CLR 21/21 A3008 RMK AO2 SLP183 T02110211
KAGS 
35nm S 
260801Z AUTO 00000KT 1/2SM FG CLR 21/21 A3009 RMK AO2 T02110206 RVRNO
TAF
KDNL 
30nm SW 
260531Z 2606/2706 VRB04KT P6SM SCT050 FM261500 22006KT P6SM VCSH BKN035 FM262000 24007KT P6SM VCTS BKN040CB FM270000 VRB03KT P6SM VCSH SCT040 BKN100
KCAE 
34nm E 
260531Z 2606/2706 VRB03KT P6SM FEW050 FM261000 VRB03KT 5SM BR SCT012 TEMPO 2610/2613 3SM BR BKN012 FM261500 23007KT P6SM BKN035 FM262000 24007KT P6SM VCTS BKN040CB FM270000 VRB03KT P6SM VCSH SCT040 BKN100
KAGS 
35nm S 
260531Z 2606/2706 00000KT P6SM SCT050 TEMPO 2607/2609 3SM BR SCT004 FM260900 00000KT 2SM BR SCT004 TEMPO 2609/2612 1/2SM FG VV004 FM261400 21004KT 5SM BR SCT010 FM261500 23006KT P6SM VCSH BKN035 FM262000 24007KT P6SM VCTS BKN040CB FM270000 VRB03KT P6SM VCSH SCT040 BKN100
NOTAMs
Click for the latest NOTAMs
NOTAMs are issued by the DoD/FAA and will open in a separate window not controlled by AirNav.

 

 
 

FBO, Fuel Providers, and Aircraft Ground Support

  
 Business Name 
 
 Contact 
 
 Services / Description 
 
Fuel Prices
 
Comments
  
Saluda County Airport 864-445-2529
803-317-8696
[web site]
[email]
Airport management, Aviation fuel, Aircraft parking (ramp or tiedown), Hangar leasing / sales, Aircraft maintenance, Aircraft modifications, Internet access, Restrooms, Showers

More info about Saluda County Airport
Shell
100LL
SS $4.15 
GUARANTEED
 
   1 read write
SS=Self service
Update Fuel Prices
 

Would you like to see your business listed on this page?

 If your business provides an interesting product or service to pilots, flight crews, aircraft, or users of the Saluda County Airport, you should consider listing it here.  To start the listing process, click on the button below
 
Add a business
 

Other Pages about Saluda County Airport

saludacounty.sc.gov/...
 
Update a link
 
Copyright © AirNav, LLC. All rights reserved. Privacy Policy  Contact